星链-33859 (STARLINK-33859)

导读

STARLINK-33859是美国SpaceX公司星链计划的卫星,于2025年4月25日发射升空。作为星链星座的组成部分,它旨在为全球提供高速低延迟互联网覆盖,尤其服务偏远地区与网络基础设施薄弱区域。该卫星依托SpaceX可重复火箭技术部署,持续推进星链星座组网进程,强化全球卫星互联网服务能力。

Basic Information
目录编号:
63640
目录名称:
STARLINK-33859
国际标识:
2025-083G
轨道中心:
EARTH
卫星名称:
星链-33859
卫星全名:
星链-33859 (STARLINK-33859)
卫星状态:
在轨 (已飞行506 天)
发射日期:
2025-04-25 UTC
国别 :
美国 (US)
星等 :
--
This satellite is enrolled in the Space Conjunction Data Service (SCDS) and the current flight risk assessment level is: No High Risk
Orbit Information
数据来源 国际轨道数据
星历时间: 2026-09-12T10:44:27+0800
21小时前
查看轨道信息
半长轴: 6861.168km
偏心率: 0.0001519
轨道倾角: 43.000°
近地点辐角 271.407°
升交点赤经 32.763°
平近点角 88.661°
近地点: 481.988km
远地点: 484.074km
周期: 94.266分钟
每日圈数: 15.275861
Detailed Information
固有亮度:
5
最大亮度:
2.5
卫星平台:
Starlink V1.0
覆盖范围:
全球
运营商:
太空探索技术公司
运营商所在国:
美国
制造商(研发单位):
太空探索技术公司
制造商所在国:
美国
使用方式:
暂无
Satellite Introduction
Starlink 计划是 SpaceX 推出的全球卫星互联网项目,通过发射低轨道卫星,为全球尤其是偏远地区提供高速、低延迟的互联网服务。自 2019 年起,Starlink 已部署数千颗卫星,旨在缩小全球数字鸿沟,推动互联网普及。该项目还为军事、航空等行业提供通信支持,带来广泛经济效益。
2D Orbit Map
3D Orbit Map
Orbit Altitude Analysis Chart
Orbit Inclination Analysis Chart
Orbit Comprehensive Analysis Chart
View Comprehensive Chart
Conjunction Data List
Event ID Objects TCA Miss Dist (km) Collision Risk Probability Collision Risk Index (CRI) Action
CDM_260915-031305-536406-364021
2026-09-15T
03:13:08+0000
0.842 km
远距离
2.306255E-5 中风险 0.62
CDM_260906-085606-364006-767822
2026-09-06T
08:56:35+0000
2.266 km
极远距离
1.9719E-6 低风险 0.41
CDM_260915-013805-536406-364021
2026-09-15T
01:38:59+0000
2.168 km
极远距离
1.23856E-6 低风险 0.37
Miss Distance Evolution Trend with All Objects
Collision Probability Evolution Trend with All Objects